User: anonymous   Login
Location: Mentone
(34.5413°N, 85.5351°W)
Time: 21:56:01
(UTC-06:00)
Language:

Cosmos 2026 Rocket - Orbit

View from above orbital plane
View from above orbital plane
View from above satellite
View from above satellite

Ground track
Ground track

The orbit data is extracted from the following two-line orbital elements,

1 20046U 89042B   14351.77094624  .00000129  00000-0  11216-3 0  4124
2 20046 082.9391 263.0782 0043444 106.5267 281.3911 13.77980024283593
Epoch (UTC): 17 December 2014 18:30:09
Eccentricity: 0.0043444
inclination: 82.9391°
perigee height: 939 km
apogee height: 1003 km
right ascension of ascending node: 263.0782°
argument of perigee: 106.5267°
revolutions per day: 13.77980024
mean anomaly at epoch: 281.3911°
orbit number at epoch: 28359

The dashed part of the orbit path shows where the satellite is in the earth's shadow,  

DLR